Waterloo, IA

10:38 PM CDT on September 20, 2017 (GMT -0500)
Waterloo Municipal

Weather History for KALO - May, 2013

Change the Weather History Date:

Monday, May 20, 2013

  Actual Average Record
Temperature  
Mean Temperature 68 °F 62 °F  
Max Temperature 77 °F 73 °F 97 °F (1934)
Min Temperature 59 °F 51 °F 31 °F (1954)
Degree Days  
Heating Degree Days 0 5  
Month to date heating degree days 168 148  
Since 1 July heating degree days 7179 6964  
Cooling Degree Days 3 2  
Month to date cooling degree days 33 24  
Year to date cooling degree days 37 32  
Growing Degree Days 18 (Base 50)    
Moisture  
Dew Point 60 °F    
Average Humidity 75    
Maximum Humidity 100    
Minimum Humidity 50    
Precipitation  
Precipitation 0.71 in 0.15 in 1.28 in (1933)
Month to date precipitation 5.38 2.86  
Year to date precipitation 18.15 10.45  
Snow  
Snow 0.00 in 0.00 in - ()
Month to date snowfall 1.7 0.0  
Since 1 July snowfall 50.0 35.3  
Snow Depth 0.00 in    
Sea Level Pressure  
Sea Level Pressure 29.61 in    
Wind  
Wind Speed 14 mph (SSW)    
Max Wind Speed 24 mph    
Max Gust Speed 36 mph    
Visibility 9 miles    
Events Rain , Thunderstorm    
T = Trace of Precipitation, MM = Missing Value Source: NWS Daily Summary

Daily Weather History Graph

Daily Weather History Graph

Search for Another Location

Airport or City:

Trip Planner

Search our weather history database for the weather conditions in past years. The results will help you decide how hot, cold, wet, or windy it might be!

Date:

Astronomy

May. 20, 2013 Rise Set
Actual Time 5:42 AM CDT 8:30 PM CDT
Civil Twilight 5:09 AM CDT 9:03 PM CDT
Nautical Twilight 4:28 AM CDT 9:44 PM CDT
Astronomical Twilight 3:40 AM CDT 10:33 PM CDT
Moon 3:32 PM CDT (5/20) 2:44 AM CDT (5/20)
Length of Visible Light 15h 53m
Length of Day
14h 47m
Waxing Gibbous, 75% of the Moon is Illuminated
May 20
Waxing Gibbous
May 24
Full
May 31
Last Quarter
Jun 8
New
Jun 16
First Quarter

Hourly Weather History & Observations

Time (CDT) Temp. Dew Point Humidity Pressure Visibility Wind Dir Wind Speed Gust Speed Precip Events Conditions
12:07 AM 62.6 °F 62.6 °F 100% 29.67 in 7.0 mi Calm Calm - 0.03 in Rain Rain
12:40 AM 62.6 °F 62.6 °F 100% 29.63 in 10.0 mi SE 3.5 mph - 0.07 in Rain Light Rain
12:51 AM 62.6 °F 62.6 °F 100% 29.63 in 10.0 mi SE 5.8 mph - 0.07 in   Mostly Cloudy
12:54 AM 63.0 °F 62.1 °F 97% 29.61 in 10.0 mi SE 4.6 mph - 0.07 in   Scattered Clouds
1:15 AM 62.6 °F 62.6 °F 100% 29.63 in 10.0 mi South 3.5 mph - N/A   Mostly Cloudy
1:34 AM 62.6 °F 62.6 °F 100% 29.61 in 10.0 mi ESE 4.6 mph - N/A   Overcast
1:54 AM 62.1 °F 62.1 °F 100% 29.60 in 10.0 mi ESE 8.1 mph - N/A   Mostly Cloudy
2:31 AM 62.6 °F 62.6 °F 100% 29.60 in 10.0 mi SSE 4.6 mph - 0.00 in Rain Light Rain
2:54 AM 62.6 °F 60.8 °F 94% 29.60 in 10.0 mi South 8.1 mph - N/A   Partly Cloudy
3:54 AM 62.1 °F 59.0 °F 90% 29.56 in 10.0 mi SE 11.5 mph - N/A   Clear
4:54 AM 61.0 °F 60.1 °F 97% 29.58 in 10.0 mi SSE 8.1 mph - N/A   Clear
5:30 AM 60.8 °F 60.8 °F 100% 29.60 in 10.0 mi SSE 10.4 mph - N/A   Mostly Cloudy
5:54 AM 62.1 °F 59.0 °F 90% 29.60 in 10.0 mi South 9.2 mph - N/A   Overcast
6:54 AM 62.6 °F 60.8 °F 94% 29.63 in 10.0 mi South 11.5 mph - N/A   Mostly Cloudy
7:01 AM 62.6 °F 60.8 °F 94% 29.63 in 10.0 mi South 10.4 mph - N/A   Mostly Cloudy
7:21 AM 62.6 °F 60.8 °F 94% 29.63 in 10.0 mi South 12.7 mph - N/A   Scattered Clouds
7:54 AM 64.0 °F 60.1 °F 87% 29.61 in 10.0 mi SSW 12.7 mph - N/A   Clear
8:54 AM 66.2 °F 59.0 °F 78% 29.62 in 10.0 mi SSW 17.3 mph 28.8 mph N/A   Clear
9:54 AM 69.1 °F 60.1 °F 73% 29.63 in 10.0 mi South 20.7 mph 27.6 mph N/A   Partly Cloudy
10:54 AM 71.1 °F 59.0 °F 66% 29.63 in 10.0 mi SSW 24.2 mph 32.2 mph N/A   Scattered Clouds
11:54 AM 73.9 °F 59.0 °F 59% 29.63 in 10.0 mi SSW 21.9 mph 29.9 mph N/A   Scattered Clouds
12:54 PM 75.2 °F 59.0 °F 57% 29.65 in 10.0 mi SSW 18.4 mph 32.2 mph N/A   Mostly Cloudy
1:54 PM 77.0 °F 57.9 °F 52% 29.64 in 10.0 mi SSW 23.0 mph 32.2 mph N/A   Partly Cloudy
2:54 PM 77.0 °F 59.0 °F 54% 29.65 in 10.0 mi SW 18.4 mph 26.5 mph N/A   Mostly Cloudy
3:54 PM 75.0 °F 57.9 °F 55% 29.64 in 10.0 mi SW 15.0 mph 25.3 mph N/A   Scattered Clouds
4:54 PM 77.0 °F 57.9 °F 52% 29.63 in 10.0 mi SW 17.3 mph 21.9 mph N/A   Partly Cloudy
5:54 PM 75.9 °F 59.0 °F 56% 29.62 in 10.0 mi SSW 11.5 mph - N/A   Partly Cloudy
6:54 PM 75.9 °F 60.1 °F 58% 29.59 in 10.0 mi West 4.6 mph - N/A   Mostly Cloudy
7:54 PM 73.0 °F 60.1 °F 64% 29.59 in 10.0 mi South 10.4 mph - N/A   Partly Cloudy
8:15 PM 71.6 °F 62.6 °F 73% 29.59 in 6.0 mi SSW 9.2 mph - 0.01 in Rain , Thunderstorm Thunderstorms and Rain
8:54 PM 69.8 °F 62.6 °F 78% 29.60 in 10.0 mi SSW 6.9 mph - N/A   Overcast
9:07 PM 69.8 °F 64.4 °F 83% 29.59 in 9.0 mi SSW 8.1 mph - 0.01 in Rain , Thunderstorm Light Rain
9:31 PM 60.8 °F 55.4 °F 82% 29.64 in 1.8 mi WSW 13.8 mph 25.3 mph 0.17 in Rain , Thunderstorm Heavy Thunderstorms and Rain
9:40 PM 59.0 °F 57.2 °F 94% 29.61 in 1.8 mi WNW 11.5 mph 19.6 mph 0.42 in Rain , Thunderstorm Heavy Thunderstorms and Rain
9:43 PM 60.8 °F 57.2 °F 88% 29.61 in 2.5 mi WNW 11.5 mph - 0.43 in Rain , Thunderstorm Thunderstorms and Rain
9:50 PM 60.8 °F 57.2 °F 88% 29.61 in 7.0 mi West 8.1 mph - 0.45 in Rain , Thunderstorm Rain
9:54 PM 60.1 °F 57.0 °F 90% 29.60 in 8.0 mi West 8.1 mph - 0.45 in Rain , Thunderstorm Rain
10:19 PM 60.8 °F 57.2 °F 88% 29.62 in 5.0 mi SW 17.3 mph 31.1 mph 0.12 in Rain , Thunderstorm Thunderstorms and Rain
10:27 PM 60.8 °F 57.2 °F 88% 29.62 in 6.0 mi SW 13.8 mph 28.8 mph 0.15 in Rain Rain
10:54 PM 60.1 °F 57.0 °F 90% 29.59 in 10.0 mi SSE 5.8 mph - 0.18 in Rain Light Rain
11:54 PM 60.1 °F 57.9 °F 93% 29.56 in 10.0 mi SE 4.6 mph - 0.00 in   Clear